STARLINK-32381

Last updated on Mon Oct 14 2024 00:02:03 GMT+0000 (Coordinated Universal Time)

1 61066U 24164S 24287.58334491 -.01483203 00000+0 -33678-1 0 9996 2 61066 53.1587 318.4547 0001216 78.2921 150.9586 15.45436632 6033
UTC large
Height (km)
Speed (km/s)
/
Latitude / Longitude
Inclination (degrees)
Orbital Period (minutes)
Azimuth
Elevation
Range (km)
Doppler Factor

Next 0 passes for location: London (51.5072 / 0.1276)

Sorry there are no passes over London.